COSMOS 970 DEB, 65005

Orbit data source: Space-Track

COSMOS 970 DEB, 65005 is space debris in LEO originally from a launch on Wed, 21 Dec 1977 UTC launched from the Tyuratam Missile And Space Complex (TTMTR). Debris objects in space refer to the collection of defunct objects orbiting the Earth. Examples of debris include non-operational satellites, rocket bodies, and fragments generated from explosions, collisions, or faulty payload assembly.

Loading next visibility...
Identifier
65005, 1977-121DS
Orbit
LEO
Country
Flag of CISCIS
Related business
Manufacturer
Unknown
Mission
Spacecraft
Bus & Motor
Unknown
Mass
Unknown
Launch date (UTC)
1977-12-21 (48 years ago)
Launch vehicle
Unknown
Launch site
Tyuratam Missile And Space Complex (TTMTR)
Object type
Payload
Rocket body
Debris
Shape & HBR
Unknown shape, 0.1 m
Radar Cross Section
Small (<0.1 m²)

Expand to show TLE details & history
Last TLE update: 4 days ago

TLE from 4 days ago
0 COSMOS 970 DEB
1 65005U 77121DS  26167.58191339  .00000062  00000-0  12333-3 0  9998
2 65005  65.8878 117.7264 0178243 202.4537 156.8659 13.79396062188111
Epoch: 2026-06-16T13:57Z
TLE epoch observation values (Epoch: 2026-06-16T13:57:57.316Z)
Latitude
-0.00006°
Longitude
3.38567°
Altitude
1,088.766 km
Speed
7.248 km/s
True Right ascension
07h 50m 54s
True Declination
0° 00' 00"
Sunlit
Object was in daylight at epoch
Visualization orbit readout
Latitude
Unknown
Longitude
Unknown
Altitude
Unknown
Speed
Unknown
Apparent Right ascension
Unknown
Apparent Declination
Unknown
Sunlit
N/A
Visualization observer readout
Local Sidereal Time
08:33:03
Azimuth
Unknown
Elevation
Unknown
Doppler factor
Unknown
Orbital elements
Apogee altitude
1,095.414 km
Perigee altitude
833.658 km
Semi-major axis
7,342.673 km
Eccentricity
0.01782
Inclination
65.8878°
RAAN
117.7264°
Arg. of periapsis
202.4537°
True anomaly
157.65222°
Mean anomaly
156.8659°
Eccentric anomaly
157.26066°
Mean motion
3.44955 °/min
Orbital period
104.36 mins
BSTAR
0.00012333
Loading maneuver chart data...
Computing Atmospheric mass density...
Loading historical data...
Loading historical data...
Loading historical data...
Loading historical data...
Loading historical data...
Loading historical data...
Loading historical data...

Documentation

Showing up to 5 results
|